Year,Month,Day,Hour,Minute,Value (Times are PST for temperature in C)
2019,03,21,00,00,8.70
2019,03,21,00,01,8.70
2019,03,21,00,02,8.70
2019,03,21,00,03,8.70
2019,03,21,00,04,8.70
2019,03,21,00,05,8.70
2019,03,21,00,06,8.70
2019,03,21,00,07,8.70
2019,03,21,00,08,8.70
2019,03,21,00,09,8.70
2019,03,21,00,10,8.70
2019,03,21,00,11,8.70
2019,03,21,00,12,8.70
2019,03,21,00,13,8.70
2019,03,21,00,14,8.70
2019,03,21,00,15,8.70
2019,03,21,00,16,8.70
2019,03,21,00,17,8.60
2019,03,21,00,18,8.50
2019,03,21,00,19,8.50
2019,03,21,00,20,8.40
2019,03,21,00,21,8.40
2019,03,21,00,22,8.30
2019,03,21,00,23,8.30
2019,03,21,00,24,8.30
2019,03,21,00,25,8.30
2019,03,21,00,26,8.30
2019,03,21,00,27,8.20
2019,03,21,00,28,8.20
2019,03,21,00,29,8.20
2019,03,21,00,30,8.10
2019,03,21,00,31,8.10
2019,03,21,00,32,8.10
2019,03,21,00,33,8.10
2019,03,21,00,34,8.10
2019,03,21,00,35,8.00
2019,03,21,00,36,8.00
2019,03,21,00,37,8.00
2019,03,21,00,38,8.00
2019,03,21,00,39,8.00
2019,03,21,00,40,8.00
2019,03,21,00,41,8.00
2019,03,21,00,42,8.00
2019,03,21,00,43,8.00
2019,03,21,00,44,8.00
2019,03,21,00,45,8.00
2019,03,21,00,46,8.00
2019,03,21,00,47,8.00
2019,03,21,00,48,8.00
2019,03,21,00,49,8.00
2019,03,21,00,50,8.00
2019,03,21,00,51,8.00
2019,03,21,00,52,8.00
2019,03,21,00,53,8.00
2019,03,21,00,54,8.00
2019,03,21,00,55,8.00
2019,03,21,00,56,7.90
2019,03,21,00,57,7.90
2019,03,21,00,58,7.90
2019,03,21,00,59,7.90
2019,03,21,01,00,7.80
2019,03,21,01,01,7.80
2019,03,21,01,02,7.80
2019,03,21,01,03,7.80
2019,03,21,01,04,7.80
2019,03,21,01,05,7.80
2019,03,21,01,06,7.80
2019,03,21,01,07,7.80
2019,03,21,01,08,7.80
2019,03,21,01,09,7.80
2019,03,21,01,10,7.80
2019,03,21,01,11,7.80
2019,03,21,01,12,7.80
2019,03,21,01,13,7.80
2019,03,21,01,14,7.80
2019,03,21,01,15,7.80
2019,03,21,01,16,7.80
2019,03,21,01,17,7.80
2019,03,21,01,18,7.70
2019,03,21,01,19,7.70
2019,03,21,01,20,7.70
2019,03,21,01,21,7.70
2019,03,21,01,22,7.60
2019,03,21,01,23,7.60
2019,03,21,01,24,7.60
2019,03,21,01,25,7.60
2019,03,21,01,26,7.60
2019,03,21,01,27,7.60
2019,03,21,01,28,7.50
2019,03,21,01,29,7.50
2019,03,21,01,30,7.30
2019,03,21,01,31,7.20
2019,03,21,01,32,7.10
2019,03,21,01,33,7.00
2019,03,21,01,34,7.00
2019,03,21,01,35,6.90
2019,03,21,01,36,6.90
2019,03,21,01,37,6.90
2019,03,21,01,38,6.90
2019,03,21,01,39,6.90
2019,03,21,01,40,6.90
2019,03,21,01,41,6.80
2019,03,21,01,42,6.80
2019,03,21,01,43,6.90
2019,03,21,01,44,6.90
2019,03,21,01,45,6.90
2019,03,21,01,46,6.90
2019,03,21,01,47,6.90
2019,03,21,01,48,6.90
2019,03,21,01,49,6.90
2019,03,21,01,50,6.80
2019,03,21,01,51,6.80
2019,03,21,01,52,6.80
2019,03,21,01,53,6.80
2019,03,21,01,54,6.80
2019,03,21,01,55,6.70
2019,03,21,01,56,6.70
2019,03,21,01,57,6.70
2019,03,21,01,58,6.60
2019,03,21,01,59,6.60
2019,03,21,02,00,6.60
2019,03,21,02,01,6.60
2019,03,21,02,02,6.50
2019,03,21,02,03,6.50
2019,03,21,02,04,6.50
2019,03,21,02,05,6.50
2019,03,21,02,06,6.40
2019,03,21,02,07,6.40
2019,03,21,02,08,6.40
2019,03,21,02,09,6.40
2019,03,21,02,10,6.40
2019,03,21,02,11,6.40
2019,03,21,02,12,6.40
2019,03,21,02,13,6.30
2019,03,21,02,14,6.30
2019,03,21,02,15,6.30
2019,03,21,02,16,6.30
2019,03,21,02,17,6.30
2019,03,21,02,18,6.30
2019,03,21,02,19,6.30
2019,03,21,02,20,6.30
2019,03,21,02,21,6.30
2019,03,21,02,22,6.30
2019,03,21,02,23,6.30
2019,03,21,02,24,6.20
2019,03,21,02,25,6.20
2019,03,21,02,26,6.20
2019,03,21,02,27,6.20
2019,03,21,02,28,6.20
2019,03,21,02,29,6.20
2019,03,21,02,30,6.20
2019,03,21,02,31,6.20
2019,03,21,02,32,6.20
2019,03,21,02,33,6.20
2019,03,21,02,34,6.20
2019,03,21,02,35,6.20
2019,03,21,02,36,6.20
2019,03,21,02,37,6.20
2019,03,21,02,38,6.20
2019,03,21,02,39,6.20
2019,03,21,02,40,6.20
2019,03,21,02,41,6.20
2019,03,21,02,42,6.10
2019,03,21,02,43,6.10
2019,03,21,02,44,6.10
2019,03,21,02,45,6.10
2019,03,21,02,46,6.10
2019,03,21,02,47,6.10
2019,03,21,02,48,6.10
2019,03,21,02,49,6.10
2019,03,21,02,50,6.10
2019,03,21,02,51,6.00
2019,03,21,02,52,6.00
2019,03,21,02,53,6.00
2019,03,21,02,54,6.00
2019,03,21,02,55,6.00
2019,03,21,02,56,6.00
2019,03,21,02,57,6.00
2019,03,21,02,58,5.90
2019,03,21,02,59,5.90
2019,03,21,03,00,5.90
2019,03,21,03,01,5.90
2019,03,21,03,02,5.90
2019,03,21,03,03,5.90
2019,03,21,03,04,5.90
2019,03,21,03,05,5.90
2019,03,21,03,06,5.90
2019,03,21,03,07,5.90
2019,03,21,03,08,5.80
2019,03,21,03,09,5.80
2019,03,21,03,10,5.80
2019,03,21,03,11,5.80
2019,03,21,03,12,5.80
2019,03,21,03,13,5.80
2019,03,21,03,14,5.80
2019,03,21,03,15,5.80
2019,03,21,03,16,5.80
2019,03,21,03,17,5.70
2019,03,21,03,18,5.70
2019,03,21,03,19,5.70
2019,03,21,03,20,5.70
2019,03,21,03,21,5.70
2019,03,21,03,22,5.70
2019,03,21,03,23,5.70
2019,03,21,03,24,5.60
2019,03,21,03,25,5.60
2019,03,21,03,26,5.70
2019,03,21,03,27,5.60
2019,03,21,03,28,5.70
2019,03,21,03,29,5.70
2019,03,21,03,30,5.70
2019,03,21,03,31,5.60
2019,03,21,03,32,5.60
2019,03,21,03,33,5.60
2019,03,21,03,34,5.60
2019,03,21,03,35,5.60
2019,03,21,03,36,5.60
2019,03,21,03,37,5.60
2019,03,21,03,38,5.60
2019,03,21,03,39,5.50
2019,03,21,03,40,5.50
2019,03,21,03,41,5.50
2019,03,21,03,42,5.50
2019,03,21,03,43,5.50
2019,03,21,03,44,5.50
2019,03,21,03,45,5.50
2019,03,21,03,46,5.50
2019,03,21,03,47,5.40
2019,03,21,03,48,5.40
2019,03,21,03,49,5.40
2019,03,21,03,50,5.40
2019,03,21,03,51,5.40
2019,03,21,03,52,5.40
2019,03,21,03,53,5.40
2019,03,21,03,54,5.40
2019,03,21,03,55,5.40
2019,03,21,03,56,5.40
2019,03,21,03,57,5.40
2019,03,21,03,58,5.40
2019,03,21,03,59,5.30
2019,03,21,04,00,5.30
2019,03,21,04,01,5.30
2019,03,21,04,02,5.30
2019,03,21,04,03,5.30
2019,03,21,04,04,5.30
2019,03,21,04,05,5.30
2019,03,21,04,06,5.40
2019,03,21,04,07,5.40
2019,03,21,04,08,5.40
2019,03,21,04,09,5.40
2019,03,21,04,10,5.40
2019,03,21,04,11,5.40
2019,03,21,04,12,5.40
2019,03,21,04,13,5.40
2019,03,21,04,14,5.40
2019,03,21,04,15,5.30
2019,03,21,04,16,5.30
2019,03,21,04,17,5.30
2019,03,21,04,18,5.30
2019,03,21,04,19,5.30
2019,03,21,04,20,5.20
2019,03,21,04,21,5.20
2019,03,21,04,22,5.20
2019,03,21,04,23,5.20
2019,03,21,04,24,5.20
2019,03,21,04,25,5.30
2019,03,21,04,26,5.30
2019,03,21,04,27,5.20
2019,03,21,04,28,5.20
2019,03,21,04,29,5.20
2019,03,21,04,30,5.20
2019,03,21,04,31,5.20
2019,03,21,04,32,5.20
2019,03,21,04,33,5.20
2019,03,21,04,34,5.20
2019,03,21,04,35,5.20
2019,03,21,04,36,5.10
2019,03,21,04,37,5.10
2019,03,21,04,38,5.10
2019,03,21,04,39,5.10
2019,03,21,04,40,5.10
2019,03,21,04,41,5.00
2019,03,21,04,42,5.00
2019,03,21,04,43,5.00
2019,03,21,04,44,5.00
2019,03,21,04,45,5.00
2019,03,21,04,46,5.00
2019,03,21,04,47,5.00
2019,03,21,04,48,5.00
2019,03,21,04,49,4.90
2019,03,21,04,50,4.90
2019,03,21,04,51,4.80
2019,03,21,04,52,4.80
2019,03,21,04,53,4.80
2019,03,21,04,54,4.80
2019,03,21,04,55,4.70
2019,03,21,04,56,4.70
2019,03,21,04,57,4.60
2019,03,21,04,58,4.60
2019,03,21,04,59,4.60
2019,03,21,05,00,4.60
2019,03,21,05,01,4.60
2019,03,21,05,02,4.60
2019,03,21,05,03,4.60
2019,03,21,05,04,4.50
2019,03,21,05,05,4.40
2019,03,21,05,06,4.40
2019,03,21,05,07,4.40
2019,03,21,05,08,4.40
2019,03,21,05,09,4.40
2019,03,21,05,10,4.40
2019,03,21,05,11,4.40
2019,03,21,05,12,4.40
2019,03,21,05,13,4.40
2019,03,21,05,14,4.40
2019,03,21,05,15,4.40
2019,03,21,05,16,4.30
2019,03,21,05,17,4.30
2019,03,21,05,18,4.30
2019,03,21,05,19,4.30
2019,03,21,05,20,4.30
2019,03,21,05,21,4.30
2019,03,21,05,22,4.30
2019,03,21,05,23,4.30
2019,03,21,05,24,4.20
2019,03,21,05,25,4.20
2019,03,21,05,26,4.20
2019,03,21,05,27,4.20
2019,03,21,05,28,4.20
2019,03,21,05,29,4.20
2019,03,21,05,30,4.10
2019,03,21,05,31,4.20
2019,03,21,05,32,4.20
2019,03,21,05,33,4.20
2019,03,21,05,34,4.20
2019,03,21,05,35,4.20
2019,03,21,05,36,4.20
2019,03,21,05,37,4.30
2019,03,21,05,38,4.30
2019,03,21,05,39,4.30
2019,03,21,05,40,4.30
2019,03,21,05,41,4.40
2019,03,21,05,42,4.40
2019,03,21,05,43,4.40
2019,03,21,05,44,4.40
2019,03,21,05,45,4.40
2019,03,21,05,46,4.40
2019,03,21,05,47,4.40
2019,03,21,05,48,4.30
2019,03,21,05,49,4.30
2019,03,21,05,50,4.40
2019,03,21,05,51,4.40
2019,03,21,05,52,4.30
2019,03,21,05,53,4.40
2019,03,21,05,54,4.30
2019,03,21,05,55,4.30
2019,03,21,05,56,4.30
2019,03,21,05,57,4.30
2019,03,21,05,58,4.30
2019,03,21,05,59,4.30
2019,03,21,06,00,4.30
2019,03,21,06,01,4.30
2019,03,21,06,02,4.30
2019,03,21,06,03,4.30
2019,03,21,06,04,4.30
2019,03,21,06,05,4.30
2019,03,21,06,06,4.30
2019,03,21,06,07,4.30
2019,03,21,06,08,4.30
2019,03,21,06,09,4.30
2019,03,21,06,10,4.20
2019,03,21,06,11,4.20
2019,03,21,06,12,4.20
2019,03,21,06,13,4.20
2019,03,21,06,14,4.20
2019,03,21,06,15,4.20
2019,03,21,06,16,4.20
2019,03,21,06,17,4.10
2019,03,21,06,18,4.10
2019,03,21,06,19,4.10
2019,03,21,06,20,4.10
2019,03,21,06,21,4.10
2019,03,21,06,22,4.10
2019,03,21,06,23,4.10
2019,03,21,06,24,4.10
2019,03,21,06,25,4.10
2019,03,21,06,26,4.10
2019,03,21,06,27,4.10
2019,03,21,06,28,4.10
2019,03,21,06,29,4.10
2019,03,21,06,30,4.10
2019,03,21,06,31,4.20
2019,03,21,06,32,4.20
2019,03,21,06,33,4.20
2019,03,21,06,34,4.20
2019,03,21,06,35,4.30
2019,03,21,06,36,4.30
2019,03,21,06,37,4.30
2019,03,21,06,38,4.30
2019,03,21,06,39,4.30
2019,03,21,06,40,4.20
2019,03,21,06,41,4.20
2019,03,21,06,42,4.20
2019,03,21,06,43,4.20
2019,03,21,06,44,4.20
2019,03,21,06,45,4.20
2019,03,21,06,46,4.20
2019,03,21,06,47,4.20
2019,03,21,06,48,4.20
2019,03,21,06,49,4.20
2019,03,21,06,50,4.10
2019,03,21,06,51,4.10
2019,03,21,06,52,4.10
2019,03,21,06,53,4.10
2019,03,21,06,54,4.10
2019,03,21,06,55,4.10
2019,03,21,06,56,4.10
2019,03,21,06,57,4.10
2019,03,21,06,58,4.10
2019,03,21,06,59,4.10
2019,03,21,07,00,4.00
2019,03,21,07,01,4.00
2019,03,21,07,02,4.00
2019,03,21,07,03,3.90
2019,03,21,07,04,3.90
2019,03,21,07,05,3.90
2019,03,21,07,06,3.90
2019,03,21,07,07,3.90
2019,03,21,07,08,3.90
2019,03,21,07,09,3.90
2019,03,21,07,10,3.80
2019,03,21,07,11,3.80
2019,03,21,07,12,3.80
2019,03,21,07,13,3.80
2019,03,21,07,14,3.80
2019,03,21,07,15,3.80
2019,03,21,07,16,3.80
2019,03,21,07,17,3.90
2019,03,21,07,18,3.90
2019,03,21,07,19,3.90
2019,03,21,07,20,3.90
2019,03,21,07,21,4.00
2019,03,21,07,22,4.00
2019,03,21,07,23,4.00
2019,03,21,07,24,4.00
2019,03,21,07,25,4.00
2019,03,21,07,26,4.10
2019,03,21,07,27,4.10
2019,03,21,07,28,4.10
2019,03,21,07,29,4.10
2019,03,21,07,30,4.10
2019,03,21,07,31,4.10
2019,03,21,07,32,4.10
2019,03,21,07,33,4.10
2019,03,21,07,34,4.10
2019,03,21,07,35,4.10
2019,03,21,07,36,4.10
2019,03,21,07,37,4.10
2019,03,21,07,38,4.10
2019,03,21,07,39,4.10
2019,03,21,07,40,4.10
2019,03,21,07,41,4.10
2019,03,21,07,42,4.10
2019,03,21,07,43,4.00
2019,03,21,07,44,4.00
2019,03,21,07,45,4.00
2019,03,21,07,46,4.00
2019,03,21,07,47,4.00
2019,03,21,07,48,4.00
2019,03,21,07,49,4.00
2019,03,21,07,50,4.00
2019,03,21,07,51,4.00
2019,03,21,07,52,4.10
2019,03,21,07,53,4.10
2019,03,21,07,54,4.10
2019,03,21,07,55,4.10
2019,03,21,07,56,4.20
2019,03,21,07,57,4.20
2019,03,21,07,58,4.20
2019,03,21,07,59,4.30
2019,03,21,08,00,4.30
2019,03,21,08,01,4.30
2019,03,21,08,02,4.40
2019,03,21,08,03,4.40
2019,03,21,08,04,4.40
2019,03,21,08,05,4.50
2019,03,21,08,06,4.50
2019,03,21,08,07,4.50
2019,03,21,08,08,4.60
2019,03,21,08,09,4.60
2019,03,21,08,10,4.60
2019,03,21,08,11,4.70
2019,03,21,08,12,4.70
2019,03,21,08,13,4.70
2019,03,21,08,14,4.80
2019,03,21,08,15,4.80
2019,03,21,08,16,4.90
2019,03,21,08,17,5.00
2019,03,21,08,18,5.10
2019,03,21,08,19,5.20
2019,03,21,08,20,5.30
2019,03,21,08,21,5.40
2019,03,21,08,22,5.50
2019,03,21,08,23,5.60
2019,03,21,08,24,5.60
2019,03,21,08,25,5.70
2019,03,21,08,26,5.80
2019,03,21,08,27,5.90
2019,03,21,08,28,6.00
2019,03,21,08,29,6.10
2019,03,21,08,30,6.30
2019,03,21,08,31,6.40
2019,03,21,08,32,6.50
2019,03,21,08,33,6.60
2019,03,21,08,34,6.60
2019,03,21,08,35,6.70
2019,03,21,08,36,6.80
2019,03,21,08,37,6.80
2019,03,21,08,38,6.90
2019,03,21,08,39,7.00
2019,03,21,08,40,7.10
2019,03,21,08,41,7.20
2019,03,21,08,42,7.30
2019,03,21,08,43,7.40
2019,03,21,08,44,7.50
2019,03,21,08,45,7.70
2019,03,21,08,46,7.80
2019,03,21,08,47,7.90
2019,03,21,08,48,7.90
2019,03,21,08,49,8.00
2019,03,21,08,50,8.10
2019,03,21,08,51,8.10
2019,03,21,08,52,8.20
2019,03,21,08,53,8.30
2019,03,21,08,54,8.40
2019,03,21,08,55,8.60
2019,03,21,08,56,8.70
2019,03,21,08,57,8.90
2019,03,21,08,58,9.00
2019,03,21,08,59,9.10
2019,03,21,09,00,9.20
2019,03,21,09,01,9.30
2019,03,21,09,02,9.30
2019,03,21,09,03,9.40
2019,03,21,09,04,9.50
2019,03,21,09,05,9.60
2019,03,21,09,06,9.60
2019,03,21,09,07,9.70
2019,03,21,09,08,9.80
2019,03,21,09,09,9.90
2019,03,21,09,10,10.00
2019,03,21,09,11,10.10
2019,03,21,09,12,10.20
2019,03,21,09,13,10.20
2019,03,21,09,14,10.30
2019,03,21,09,15,10.40
2019,03,21,09,16,10.40
2019,03,21,09,17,10.50
2019,03,21,09,18,10.50
2019,03,21,09,19,10.60
2019,03,21,09,20,10.70
2019,03,21,09,21,10.70
2019,03,21,09,22,10.80
2019,03,21,09,23,10.90
2019,03,21,09,24,11.00
2019,03,21,09,25,11.10
2019,03,21,09,26,11.10
2019,03,21,09,27,11.20
2019,03,21,09,28,11.20
2019,03,21,09,29,11.20
2019,03,21,09,30,11.20
2019,03,21,09,31,11.20
2019,03,21,09,32,11.30
2019,03,21,09,33,11.30
2019,03,21,09,34,11.40
2019,03,21,09,35,11.50
2019,03,21,09,36,11.60
2019,03,21,09,37,11.60
2019,03,21,09,38,11.60
2019,03,21,09,39,11.60
2019,03,21,09,40,11.60
2019,03,21,09,41,11.60
2019,03,21,09,42,11.60
2019,03,21,09,43,11.60
2019,03,21,09,44,11.60
2019,03,21,09,45,11.70
2019,03,21,09,46,11.70
2019,03,21,09,47,11.70
2019,03,21,09,48,11.70
2019,03,21,09,49,11.70
2019,03,21,09,50,11.80
2019,03,21,09,51,11.80
2019,03,21,09,52,11.80
2019,03,21,09,53,11.70
2019,03,21,09,54,11.60
2019,03,21,09,55,11.60
2019,03,21,09,56,11.60
2019,03,21,09,57,11.60
2019,03,21,09,58,11.70
2019,03,21,09,59,11.70
2019,03,21,10,00,11.80
2019,03,21,10,01,11.80
2019,03,21,10,02,11.80
2019,03,21,10,03,11.90
2019,03,21,10,04,11.90
2019,03,21,10,05,12.00
2019,03,21,10,06,12.10
2019,03,21,10,07,12.10
2019,03,21,10,08,12.10
2019,03,21,10,09,12.10
2019,03,21,10,10,12.20
2019,03,21,10,11,12.30
2019,03,21,10,12,12.40
2019,03,21,10,13,12.40
2019,03,21,10,14,12.50
2019,03,21,10,15,12.60
2019,03,21,10,16,12.70
2019,03,21,10,17,12.80
2019,03,21,10,18,12.90
2019,03,21,10,19,12.90
2019,03,21,10,20,13.00
2019,03,21,10,21,13.00
2019,03,21,10,22,13.00
2019,03,21,10,23,13.00
2019,03,21,10,24,13.00
2019,03,21,10,25,13.00
2019,03,21,10,26,12.90
2019,03,21,10,27,12.90
2019,03,21,10,28,13.00
2019,03,21,10,29,13.00
2019,03,21,10,30,13.10
2019,03,21,10,31,13.10
2019,03,21,10,32,13.10
2019,03,21,10,33,13.10
2019,03,21,10,34,13.20
2019,03,21,10,35,13.20
2019,03,21,10,36,13.20
2019,03,21,10,37,13.20
2019,03,21,10,38,13.20
2019,03,21,10,39,13.20
2019,03,21,10,40,13.30
2019,03,21,10,41,13.30
2019,03,21,10,42,13.40
2019,03,21,10,43,13.40
2019,03,21,10,44,13.40
2019,03,21,10,45,13.50
2019,03,21,10,46,13.50
2019,03,21,10,47,13.50
2019,03,21,10,48,13.50
2019,03,21,10,49,13.50
2019,03,21,10,50,13.50
2019,03,21,10,51,13.60
2019,03,21,10,52,13.60
2019,03,21,10,53,13.50
2019,03,21,10,54,13.50
2019,03,21,10,55,13.60
2019,03,21,10,56,13.60
2019,03,21,10,57,13.60
2019,03,21,10,58,13.70
2019,03,21,10,59,13.80
2019,03,21,11,00,13.80
2019,03,21,11,01,13.90
2019,03,21,11,02,14.00
2019,03,21,11,03,14.00
2019,03,21,11,04,13.90
2019,03,21,11,05,13.80
2019,03,21,11,06,13.80
2019,03,21,11,07,13.80
2019,03,21,11,08,13.80
2019,03,21,11,09,13.70
2019,03,21,11,10,13.70
2019,03,21,11,11,13.70
2019,03,21,11,12,13.70
2019,03,21,11,13,13.70
2019,03,21,11,14,13.70
2019,03,21,11,15,13.70
2019,03,21,11,16,13.70
2019,03,21,11,17,13.70
2019,03,21,11,18,13.60
2019,03,21,11,19,13.60
2019,03,21,11,20,13.60
2019,03,21,11,21,13.60
2019,03,21,11,22,13.60
2019,03,21,11,23,13.70
2019,03,21,11,24,13.70
2019,03,21,11,25,13.70
2019,03,21,11,26,13.70
2019,03,21,11,27,13.70
2019,03,21,11,28,13.80
2019,03,21,11,29,13.80
2019,03,21,11,30,13.80
2019,03,21,11,31,13.90
2019,03,21,11,32,13.90
2019,03,21,11,33,13.90
2019,03,21,11,34,14.00
2019,03,21,11,35,14.10
2019,03,21,11,36,14.10
2019,03,21,11,37,14.20
2019,03,21,11,38,14.30
2019,03,21,11,39,14.40
2019,03,21,11,40,14.40
2019,03,21,11,41,14.30
2019,03,21,11,42,14.20
2019,03,21,11,43,14.20
2019,03,21,11,44,14.20
2019,03,21,11,45,14.20
2019,03,21,11,46,14.20
2019,03,21,11,47,14.30
2019,03,21,11,48,14.30
2019,03,21,11,49,14.30
2019,03,21,11,50,14.40
2019,03,21,11,51,14.30
2019,03,21,11,52,14.30
2019,03,21,11,53,14.30
2019,03,21,11,54,14.30
2019,03,21,11,55,14.40
2019,03,21,11,56,14.30
2019,03,21,11,57,14.40
2019,03,21,11,58,14.40
2019,03,21,11,59,14.50
2019,03,21,12,00,14.60
2019,03,21,12,01,14.60
2019,03,21,12,02,14.70
2019,03,21,12,03,14.70
2019,03,21,12,04,14.80
2019,03,21,12,05,14.90
2019,03,21,12,06,15.00
2019,03,21,12,07,15.00
2019,03,21,12,08,15.00
2019,03,21,12,09,14.90
2019,03,21,12,10,14.80
2019,03,21,12,11,14.90
2019,03,21,12,12,14.90
2019,03,21,12,13,15.00
2019,03,21,12,14,15.00
2019,03,21,12,15,15.00
2019,03,21,12,16,15.10
2019,03,21,12,17,15.10
2019,03,21,12,18,15.10
2019,03,21,12,19,15.00
2019,03,21,12,20,14.90
2019,03,21,12,21,14.90
2019,03,21,12,22,14.80
2019,03,21,12,23,14.80
2019,03,21,12,24,14.70
2019,03,21,12,25,14.60
2019,03,21,12,26,14.60
2019,03,21,12,27,14.50
2019,03,21,12,28,14.50
2019,03,21,12,29,14.50
2019,03,21,12,30,14.50
2019,03,21,12,31,14.50
2019,03,21,12,32,14.50
2019,03,21,12,33,14.50
2019,03,21,12,34,14.50
2019,03,21,12,35,14.40
2019,03,21,12,36,14.40
2019,03,21,12,37,14.30
2019,03,21,12,38,14.20
2019,03,21,12,39,14.10
2019,03,21,12,40,14.20
2019,03,21,12,41,14.20
2019,03,21,12,42,14.30
2019,03,21,12,43,14.30
2019,03,21,12,44,14.30
2019,03,21,12,45,14.30
2019,03,21,12,46,14.30
2019,03,21,12,47,14.20
2019,03,21,12,48,14.10
2019,03,21,12,49,14.00
2019,03,21,12,50,13.80
2019,03,21,12,51,13.80
2019,03,21,12,52,13.80
2019,03,21,12,53,13.80
2019,03,21,12,54,13.80
2019,03,21,12,55,13.80
2019,03,21,12,56,13.80
2019,03,21,12,57,13.80
2019,03,21,12,58,13.80
2019,03,21,12,59,13.80
2019,03,21,13,00,13.80
2019,03,21,13,01,13.80
2019,03,21,13,02,13.90
2019,03,21,13,03,13.90
2019,03,21,13,04,14.00
2019,03,21,13,05,14.00
2019,03,21,13,06,14.00
2019,03,21,13,07,14.00
2019,03,21,13,08,14.00
2019,03,21,13,09,14.00
2019,03,21,13,10,14.10
2019,03,21,13,11,14.10
2019,03,21,13,12,14.20
2019,03,21,13,13,14.30
2019,03,21,13,14,14.30
2019,03,21,13,15,14.30
2019,03,21,13,16,14.30
2019,03,21,13,17,14.30
2019,03,21,13,18,14.30
2019,03,21,13,19,14.30
2019,03,21,13,20,14.30
2019,03,21,13,21,14.30
2019,03,21,13,22,14.40
2019,03,21,13,23,14.40
2019,03,21,13,24,14.40
2019,03,21,13,25,14.50
2019,03,21,13,26,14.60
2019,03,21,13,27,14.70
2019,03,21,13,28,14.80
2019,03,21,13,29,14.90
2019,03,21,13,30,14.90
2019,03,21,13,31,14.90
2019,03,21,13,32,14.90
2019,03,21,13,33,15.00
2019,03,21,13,34,15.00
2019,03,21,13,35,15.00
2019,03,21,13,36,15.10
2019,03,21,13,37,15.20
2019,03,21,13,38,15.30
2019,03,21,13,39,15.30
2019,03,21,13,40,15.20
2019,03,21,13,41,15.30
2019,03,21,13,42,15.20
2019,03,21,13,43,15.30
2019,03,21,13,44,15.30
2019,03,21,13,45,15.40
2019,03,21,13,46,15.40
2019,03,21,13,47,15.40
2019,03,21,13,48,15.40
2019,03,21,13,49,15.50
2019,03,21,13,50,15.60
2019,03,21,13,51,15.60
2019,03,21,13,52,15.60
2019,03,21,13,53,15.70
2019,03,21,13,54,15.80
2019,03,21,13,55,15.80
2019,03,21,13,56,15.60
2019,03,21,13,57,15.50
2019,03,21,13,58,15.40
2019,03,21,13,59,15.30
2019,03,21,14,00,15.30
2019,03,21,14,01,15.20
2019,03,21,14,02,15.20
2019,03,21,14,03,15.10
2019,03,21,14,04,15.10
2019,03,21,14,05,15.20
2019,03,21,14,06,15.30
2019,03,21,14,07,15.40
2019,03,21,14,08,15.40
2019,03,21,14,09,15.30
2019,03,21,14,10,15.20
2019,03,21,14,11,15.20
2019,03,21,14,12,15.20
2019,03,21,14,13,15.20
2019,03,21,14,14,15.20
2019,03,21,14,15,15.30
2019,03,21,14,16,15.30
2019,03,21,14,17,15.30
2019,03,21,14,18,15.30
2019,03,21,14,19,15.30
2019,03,21,14,20,15.30
2019,03,21,14,21,15.40
2019,03,21,14,22,15.40
2019,03,21,14,23,15.40
2019,03,21,14,24,15.40
2019,03,21,14,25,15.40
2019,03,21,14,26,15.40
2019,03,21,14,27,15.40
2019,03,21,14,28,15.30
2019,03,21,14,29,15.20
2019,03,21,14,30,15.10
2019,03,21,14,31,15.10
2019,03,21,14,32,15.10
2019,03,21,14,33,15.10
2019,03,21,14,34,15.20
2019,03,21,14,35,15.40
2019,03,21,14,36,15.50
2019,03,21,14,37,15.40
2019,03,21,14,38,15.40
2019,03,21,14,39,15.30
2019,03,21,14,40,15.20
2019,03,21,14,41,15.10
2019,03,21,14,42,15.10
2019,03,21,14,43,15.20
2019,03,21,14,44,15.30
2019,03,21,14,45,15.30
2019,03,21,14,46,15.40
2019,03,21,14,47,15.40
2019,03,21,14,48,15.30
2019,03,21,14,49,15.30
2019,03,21,14,50,15.20
2019,03,21,14,51,15.20
2019,03,21,14,52,15.10
2019,03,21,14,53,15.10
2019,03,21,14,54,15.10
2019,03,21,14,55,15.10
2019,03,21,14,56,15.00
2019,03,21,14,57,15.00
2019,03,21,14,58,14.90
2019,03,21,14,59,15.00
2019,03,21,15,00,15.00
2019,03,21,15,01,14.90
2019,03,21,15,02,14.90
2019,03,21,15,03,14.80
2019,03,21,15,04,14.80
2019,03,21,15,05,14.80
2019,03,21,15,06,14.80
2019,03,21,15,07,14.80
2019,03,21,15,08,14.80
2019,03,21,15,09,14.80
2019,03,21,15,10,14.80
2019,03,21,15,11,14.80
2019,03,21,15,12,14.80
2019,03,21,15,13,14.80
2019,03,21,15,14,14.90
2019,03,21,15,15,15.00
2019,03,21,15,16,15.10
2019,03,21,15,17,15.20
2019,03,21,15,18,15.30
2019,03,21,15,19,15.40
2019,03,21,15,20,15.40
2019,03,21,15,21,15.50
2019,03,21,15,22,15.50
2019,03,21,15,23,15.40
2019,03,21,15,24,15.40
2019,03,21,15,25,15.40
2019,03,21,15,26,15.50
2019,03,21,15,27,15.50
2019,03,21,15,28,15.40
2019,03,21,15,29,15.30
2019,03,21,15,30,15.30
2019,03,21,15,31,15.20
2019,03,21,15,32,15.20
2019,03,21,15,33,15.20
2019,03,21,15,34,15.20
2019,03,21,15,35,15.20
2019,03,21,15,36,15.30
2019,03,21,15,37,15.30
2019,03,21,15,38,15.20
2019,03,21,15,39,15.20
2019,03,21,15,40,15.20
2019,03,21,15,41,15.20
2019,03,21,15,42,15.20
2019,03,21,15,43,15.10
2019,03,21,15,44,15.10
2019,03,21,15,45,15.00
2019,03,21,15,46,15.00
2019,03,21,15,47,14.90
2019,03,21,15,48,14.90
2019,03,21,15,49,14.80
2019,03,21,15,50,14.70
2019,03,21,15,51,14.70
2019,03,21,15,52,14.70
2019,03,21,15,53,14.70
2019,03,21,15,54,14.70
2019,03,21,15,55,14.70
2019,03,21,15,56,14.70
2019,03,21,15,57,14.80
2019,03,21,15,58,14.80
2019,03,21,15,59,14.80
2019,03,21,16,00,14.80
2019,03,21,16,01,14.90
2019,03,21,16,02,15.00
2019,03,21,16,03,15.00
2019,03,21,16,04,15.10
2019,03,21,16,05,15.10
2019,03,21,16,06,15.00
2019,03,21,16,07,14.90
2019,03,21,16,08,14.90
2019,03,21,16,09,14.90
2019,03,21,16,10,14.90
2019,03,21,16,11,15.00
2019,03,21,16,12,15.10
2019,03,21,16,13,15.10
2019,03,21,16,14,15.20
2019,03,21,16,15,15.20
2019,03,21,16,16,15.30
2019,03,21,16,17,15.30
2019,03,21,16,18,15.30
2019,03,21,16,19,15.30
2019,03,21,16,20,15.30
2019,03,21,16,21,15.30
2019,03,21,16,22,15.20
2019,03,21,16,23,15.10
2019,03,21,16,24,15.10
2019,03,21,16,25,15.10
2019,03,21,16,26,15.10
2019,03,21,16,27,15.20
2019,03,21,16,28,15.30
2019,03,21,16,29,15.40
2019,03,21,16,30,15.40
2019,03,21,16,31,15.50
2019,03,21,16,32,15.60
2019,03,21,16,33,15.70
2019,03,21,16,34,15.80
2019,03,21,16,35,15.80
2019,03,21,16,36,15.80
2019,03,21,16,37,15.80
2019,03,21,16,38,15.80
2019,03,21,16,39,15.80
2019,03,21,16,40,15.70
2019,03,21,16,41,15.70
2019,03,21,16,42,15.70
2019,03,21,16,43,15.60
2019,03,21,16,44,15.60
2019,03,21,16,45,15.50
2019,03,21,16,46,15.40
2019,03,21,16,47,15.30
2019,03,21,16,48,15.20
2019,03,21,16,49,15.10
2019,03,21,16,50,15.00
2019,03,21,16,51,15.00
2019,03,21,16,52,14.90
2019,03,21,16,53,14.80
2019,03,21,16,54,14.80
2019,03,21,16,55,14.80
2019,03,21,16,56,14.70
2019,03,21,16,57,14.70
2019,03,21,16,58,14.70
2019,03,21,16,59,14.60
2019,03,21,17,00,14.60
2019,03,21,17,01,14.50
2019,03,21,17,02,14.50
2019,03,21,17,03,14.60
2019,03,21,17,04,14.50
2019,03,21,17,05,14.50
2019,03,21,17,06,14.60
2019,03,21,17,07,14.60
2019,03,21,17,08,14.60
2019,03,21,17,09,14.60
2019,03,21,17,10,14.70
2019,03,21,17,11,14.70
2019,03,21,17,12,14.80
2019,03,21,17,13,14.80
2019,03,21,17,14,14.80
2019,03,21,17,15,14.90
2019,03,21,17,16,14.90
2019,03,21,17,17,15.00
2019,03,21,17,18,15.10
2019,03,21,17,19,15.20
2019,03,21,17,20,15.30
2019,03,21,17,21,15.30
2019,03,21,17,22,15.40
2019,03,21,17,23,15.50
2019,03,21,17,24,15.60
2019,03,21,17,25,15.70
2019,03,21,17,26,15.80
2019,03,21,17,27,15.90
2019,03,21,17,28,16.00
2019,03,21,17,29,16.00
2019,03,21,17,30,16.00
2019,03,21,17,31,16.10
2019,03,21,17,32,16.10
2019,03,21,17,33,16.10
2019,03,21,17,34,16.10
2019,03,21,17,35,16.10
2019,03,21,17,36,16.10
2019,03,21,17,37,16.10
2019,03,21,17,38,16.10
2019,03,21,17,39,16.10
2019,03,21,17,40,16.20
2019,03,21,17,41,16.20
2019,03,21,17,42,16.20
2019,03,21,17,43,16.20